TimeEST,TemperatureF,Dew PointF,Humidity,Sea Level PressureIn,VisibilityMPH,Wind Direction,Wind SpeedMPH,Gust SpeedMPH,PrecipitationIn,Events,Conditions,WindDirDegrees,DateUTC
12:54 AM,33.1,17.1,52,30.28,10.0,SSW,11.5,-,N/A,,Clear,210,2013-11-26 05:54:00
1:54 AM,34.0,18.0,52,30.27,10.0,SSW,13.8,-,N/A,,Mostly Cloudy,210,2013-11-26 06:54:00
2:54 AM,35.1,16.0,46,30.28,10.0,SW,13.8,-,N/A,,Partly Cloudy,230,2013-11-26 07:54:00
3:54 AM,35.1,15.1,44,30.28,10.0,WSW,16.1,-,N/A,,Clear,240,2013-11-26 08:54:00
4:54 AM,34.0,16.0,48,30.29,10.0,SW,18.4,-,N/A,,Overcast,230,2013-11-26 09:54:00
5:54 AM,35.1,16.0,46,30.29,10.0,SW,15.0,-,N/A,,Overcast,230,2013-11-26 10:54:00
6:54 AM,35.1,16.0,46,30.30,10.0,SW,11.5,-,N/A,,Overcast,230,2013-11-26 11:54:00
7:54 AM,36.0,18.0,48,30.32,9.0,SW,12.7,-,0.00,Snow,Light Snow,230,2013-11-26 12:54:00
8:54 AM,36.0,21.0,55,30.32,9.0,West,4.6,-,0.00,,Overcast,280,2013-11-26 13:54:00
9:54 AM,37.0,19.9,50,30.33,10.0,Variable,5.8,-,N/A,,Overcast,0,2013-11-26 14:54:00
10:54 AM,39.0,19.0,45,30.32,10.0,WSW,6.9,-,N/A,,Overcast,240,2013-11-26 15:54:00
11:54 AM,39.9,19.9,45,30.30,10.0,SW,10.4,-,N/A,,Overcast,230,2013-11-26 16:54:00
12:54 PM,41.0,19.9,43,30.29,10.0,West,4.6,-,N/A,,Overcast,260,2013-11-26 17:54:00
1:54 PM,41.0,19.9,43,30.28,10.0,WSW,3.5,-,N/A,,Overcast,240,2013-11-26 18:54:00
2:54 PM,42.1,18.0,38,30.28,10.0,SW,5.8,-,N/A,,Overcast,220,2013-11-26 19:54:00
3:54 PM,42.1,19.0,40,30.28,10.0,South,3.5,-,N/A,,Overcast,170,2013-11-26 20:54:00
4:54 PM,41.0,24.1,51,30.29,10.0,SSE,4.6,-,0.00,Rain,Light Rain,150,2013-11-26 21:54:00
5:54 PM,41.0,26.1,55,30.27,10.0,SE,6.9,-,0.00,Rain,Light Rain,140,2013-11-26 22:54:00
6:54 PM,39.9,30.9,70,30.26,10.0,SSE,9.2,-,0.00,,Overcast,150,2013-11-26 23:54:00
7:54 PM,39.0,34.0,82,30.25,8.0,SE,8.1,-,0.01,Rain,Light Rain,130,2013-11-27 00:54:00
8:14 PM,39.2,35.6,87,30.23,8.0,SSE,8.1,-,0.00,Rain,Light Rain,160,2013-11-27 01:14:00
8:54 PM,39.0,36.0,89,30.22,9.0,SSE,5.8,-,0.00,Rain,Light Rain,150,2013-11-27 01:54:00
9:54 PM,41.0,37.9,89,30.16,9.0,ESE,5.8,-,0.02,Rain,Light Rain,110,2013-11-27 02:54:00
10:12 PM,42.8,39.2,87,30.15,6.0,ESE,6.9,-,0.00,Rain,Light Rain,120,2013-11-27 03:12:00
10:32 PM,42.8,39.2,87,30.14,4.0,ESE,8.1,-,0.02,Rain,Light Rain,110,2013-11-27 03:32:00
10:54 PM,43.0,41.0,93,30.12,5.0,ESE,10.4,-,0.03,Rain,Light Rain,110,2013-11-27 03:54:00
11:54 PM,44.1,43.0,96,30.06,3.0,ESE,10.4,-,0.04,Rain,Light Rain,120,2013-11-27 04:54:00